Regional Weather Roundup
Issued by NWS

Home | Current Version | Previous Version | Graphics & Text | Print | Product List | Glossary On
Versions: 1 2 3 4 5 6 7 8 9 10 11 12 13 14 15 16 17 18 19 20 21 22 23 24 25 26 27 28 29 30 31 32 33 34 35 36 37 38 39 40 41 42 43 44 45 46 47 48 49 50
000
ASUS43 KLOT 270712
RWRIL

ILLINOIS REGIONAL WEATHER ROUNDUP
NATIONAL WEATHER SERVICE CHICAGO/ROMEOVILLE IL
200 AM CDT MON APR 27 2015

NOTE: "FAIR" INDICATES FEW OR NO CLOUDS BELOW 12,000 FEET WITH NO
SIGNIFICANT WEATHER AND/OR OBSTRUCTIONS TO VISIBILITY.

* THESE STATIONS ARE NOT UNDER NWS QUALITY CONTROL. THEY ALSO MAY NOT
  REPORT WEATHER SUCH AS PRECIPITATION OR FOG.

ILZ001-002-007-009-015-016-024-270800-
NORTHWEST ILLINOIS

CITY           SKY/WX    TMP DP  RH WIND       PRES   REMARKS
MOLINE         CLEAR     36  33  89 SW3       30.06S
STERLING*      CLEAR     37  30  75 E5        30.10R WCI  34
SAVANNA*       CLEAR     40  32  72 NE8       30.10R
$$

ILZ003-004-008-010-011-017-018-270800-
NORTH CENTRAL ILLINOIS

CITY           SKY/WX    TMP DP  RH WIND       PRES   REMARKS
ROCKFORD       CLEAR     40  27  59 N6        30.11S
FREEPORT*      CLEAR     36  28  72 E5        30.11S WCI  32
ROCHELLE*      CLEAR     36  30  79 CALM      30.09S
DE KALB*       CLEAR     36  28  75 N7        30.07F WCI  30
PERU*          CLEAR     40  32  71 N6        30.09S
$$

ILZ005-006-012>014-019>023-270800-
NORTHEAST ILLINOIS

CITY           SKY/WX    TMP DP  RH WIND       PRES   REMARKS
CHICAGO-OHARE  CLEAR     41  30  65 N12       30.05S
CHICAGO-MIDWAY CLEAR     45  31  58 N15       30.05S
AURORA         CLEAR     37  28  70 N7        30.06F WCI  32
LANSING*       CLEAR     41  32  69 N7        30.04S
JOLIET*        CLEAR     42  31  66 CALM      30.06S
WAUKEGAN       CLEAR     41  31  67 N7        30.06S
DUPAGE AIRPORT CLEAR     37  30  75 N10       30.06S WCI  30
KANKAKEE*      CLEAR     40  31  68 CALM      30.05S
WHEELING       CLEAR     40  30  67 N7        30.08S
MORRIS*        CLEAR     34  30  84 NW6       30.04R WCI  29
ROMEOVILLE*    CLEAR     40  30  69 NE10      30.05S
NORTHERLY ISL    N/A     43  34  70 N14         N/A
$$

LMZ740>746-270800-
SOUTHERN LAKE MICHIGAN

STATION/POSITION SKY/WX   TEMP    WIND        PRES    VSBY  WAVE
                          AIR SEA DIR/SP/G                  HT/PER
                          (F)     (DEG/KT/KT) (MB)    (MI)  (FT/S)
HARRISON CRIB              42     340/ 20/ 23   N/A
BURNHAM HARBOR             43     360/  8/ 18   N/A
CALUMET HARBOR             43     340/ 15/ 21   N/A
BURNS HARBOR               42     360/ 16/ 19 1017.3
MICHIGAN CITY              40     350/ 12/ 15   N/A
MICHIGAN CITY 6N           41 45  360/ 16/ 19   N/A           4/ 5
$$

ILZ025>027-034>036-040-047-049-050-058-095>099-270800-
WEST-CENTRAL ILLINOIS

CITY           SKY/WX    TMP DP  RH WIND       PRES   REMARKS
QUINCY         CLEAR     43  35  73 N6        30.05F
GALESBURG*     CLEAR     38  33  84 CALM      30.06F
MACOMB*        CLEAR     38  35  89 W3        30.09R
JACKSONVILLE*  CLEAR     40  35  82 CALM      30.05F
PITTSFIELD*    CLEAR     44  37  77 NE6       30.06F
$$

ILZ028>032-037-038-041>044-048-051>054-059>061-270800-
CENTRAL ILLINOIS

CITY           SKY/WX    TMP DP  RH WIND       PRES   REMARKS
PONTIAC        CLEAR     39  31  72 N5        30.07S
BLOOMINGTON    CLEAR     41  32  70 N7        30.07S
DECATUR        CLEAR     39  29  67 N8        30.04S WCI  33
PEORIA         CLEAR     41  34  76 NE3       30.06F
LACON*         CLEAR     36  32  84 CALM      30.08S
LINCOLN*       CLEAR     39  35  84 NW3       30.06S
SPRINGFIELD    CLEAR     39  33  79 CALM      30.06S
TAYLORVILLE    CLEAR     36  32  87 CALM      30.04F
$$

ILZ033-039-045-046-055>057-062-063-270800-
EAST-CENTRAL ILLINOIS

CITY           SKY/WX    TMP DP  RH WIND       PRES   REMARKS
CHAMPAIGN      CLEAR     38  29  70 N9        30.03S WCI  31
DANVILLE*      CLEAR     38  30  73 NW7       29.99S WCI  32
RANTOUL*       CLEAR     41  30  65 NW9       30.03F
MATTOON        CLEAR     37  29  72 NW7       30.01S WCI  32
PARIS*         CLEAR     39  31  73 NW5       30.02S
$$

ILZ079-100>102-270800-
SOUTHWEST ILLINOIS

CITY           SKY/WX    TMP DP  RH WIND       PRES   REMARKS
ALTON          CLEAR     44  36  73 CALM      30.04F
BELLEVILLE     CLEAR     44  37  76 N5        30.02F
CAHOKIA*       CLEAR     46  36  68 CALM      30.04S
SPARTA*        CLEAR     45  35  69 N5        30.03S
$$

ILZ064>066-069>071-074>076-080>082-084>086-088>090-092>094-270800-
SOUTH-CENTRAL ILLINOIS

CITY           SKY/WX    TMP DP  RH WIND       PRES   REMARKS
CARBONDALE     CLEAR     45  35  68 N3        30.01R
CAIRO*         CLEAR     49  38  66 N8        29.98S
EFFINGHAM*     CLEAR     42  29  60 N6        30.03F
MARION         CLEAR     45  36  70 N5        30.01R
MT. VERNON     CLEAR     45  28  53 N5        30.01S
CENTRALIA*     CLEAR     38  33  82 N5        30.01F WCI  35
SALEM*         CLEAR     44  34  70 N6        30.01F
METROPOLIS*    CLEAR     48  40  72 N7        29.97R
$$

ILZ067-068-072-073-078-083-087-091-270800-
SOUTHEAST ILLINOIS

CITY           SKY/WX    TMP DP  RH WIND       PRES   REMARKS
LAWRENCEVILLE  CLEAR     45  32  60 N9        29.99F
FLORA*         CLEAR     42  33  71 N6        30.01F
FAIRFIELD*     CLEAR     44  32  62 N3        29.99F
HARRISBURG*    CLEAR     46  35  66 N3        30.01R
ROBINSON*      CLEAR     41  33  72 N9        30.01F
CARMI*         CLEAR     45  32  59 N8        29.98F
$$

ABBREVIATIONS USED IN REMARKS
   TC - TEMPERATURE IN CELSIUS
  WCI - WIND CHILL INDEX
   HX - HEAT INDEX
  VSB - VISIBILITY
$$




USA.gov is the U.S. government's official web portal to all federal, state and local government web resources and services.